KC3BAN-13 Weather Reports


Display with metric or nautical units.
time (UTC)temp
F
wind
direction
speed
MPH
gust
MPH
rain 1hr
in
rain 24hr
in
rain mn
in
humidity
%
barometer
mb
20260509042804 54 264 0.0 7.0 0.00 0.00 0.00 75 1005.1
20260509042038 54 244 0.0 7.0 0.00 0.00 0.00 76 1005.1
20260509041800 54 255 0.0 0.0 0.00 0.00 0.00 76 1005.0
20260509041035 54 255 0.0 2.0 0.00 0.00 0.00 76 1005.1
20260509040537 54 255 0.0 2.0 0.00 0.00 0.00 75 1005.1
20260509040035 54 169 0.0 0.0 0.00 0.00 0.00 75 1005.2
20260509035536 54 197 0.0 4.0 0.00 0.00 0.00 76 1005.2
20260509035037 54 197 0.0 4.0 0.00 0.00 0.00 76 1005.3
20260509034536 53 252 0.0 2.0 0.00 0.00 0.00 76 1005.3
20260509034254 53 205 0.0 0.0 0.00 0.00 0.00 77 1005.3
20260509033034 53 347 0.0 0.0 0.00 0.00 0.00 77 1005.4
20260509032534 53 347 0.0 0.0 0.00 0.00 0.00 77 1005.5
20260509032034 53 347 0.0 2.0 0.00 0.00 0.00 78 1005.5
20260509031534 53 347 0.0 2.0 0.00 0.00 0.00 79 1005.5
20260509031254 52 86 0.0 0.0 0.00 0.00 0.00 80 1005.5
20260509030534 52 86 0.0 2.0 0.00 0.00 0.00 80 1005.6
20260509030034 52 86 0.0 2.0 0.00 0.00 0.00 81 1005.6
20260509025532 51 220 0.0 0.0 0.00 0.00 0.00 82 1005.6
20260509024532 51 220 0.0 0.0 0.00 0.00 0.00 81 1005.5
20260509024032 52 220 0.0 0.0 0.00 0.00 0.00 81 1005.4
20260509023530 52 220 0.0 0.0 0.00 0.00 0.00 81 1005.5
20260509023024 53 220 0.0 0.0 0.00 0.00 0.00 80 1005.4
20260509022519 53 220 0.0 0.0 0.00 0.00 0.00 80 1005.4
20260509022014 53 220 0.0 0.0 0.00 0.00 0.00 80 1005.4
20260509021001 53 220 0.0 0.0 0.00 0.00 0.00 80 1005.3
20260509020455 53 220 0.0 0.0 0.00 0.00 0.00 80 1005.3
20260509020208 53 220 0.0 0.0 0.00 0.00 0.00 81 1005.3
20260509015444 53 220 0.0 0.0 0.00 0.00 0.00 81 1005.3
20260509014936 53 220 0.0 0.0 0.00 0.00 0.00 82 1005.2
20260509014430 53 220 0.0 0.0 0.00 0.00 0.00 82 1005.3
20260509014150 54 220 0.0 0.0 0.00 0.00 0.00 82 1005.2
20260509013419 54 220 0.0 0.0 0.00 0.00 0.00 81 1005.3
20260509012914 54 220 0.0 0.0 0.00 0.00 0.00 81 1005.3
20260509012407 55 220 0.0 0.0 0.00 0.00 0.00 81 1005.3
20260509011901 55 220 0.0 0.0 0.00 0.00 0.00 80 1005.3
20260509011355 55 220 0.0 0.0 0.00 0.00 0.00 80 1005.2
20260509010848 55 220 0.0 0.0 0.00 0.00 0.00 79 1005.2
20260509010344 56 220 0.0 0.0 0.00 0.00 0.00 78 1005.1
20260509005836 56 220 0.0 0.0 0.00 0.00 0.00 77 1005.1
20260509005331 56 220 0.0 0.0 0.00 0.00 0.00 76 1005.0
20260509004825 57 220 0.0 0.0 0.00 0.00 0.00 76 1004.9
20260509004319 57 220 0.0 0.0 0.00 0.00 0.00 74 1004.9
20260509003814 58 220 0.0 0.0 0.00 0.00 0.00 72 1004.9
20260509003307 58 220 0.0 0.0 0.00 0.00 0.00 72 1004.8
20260509002801 59 220 0.0 0.0 0.00 0.00 0.00 70 1004.8
20260509002255 59 220 0.0 0.0 0.00 0.00 0.00 69 1004.7
20260509001749 60 220 0.0 0.0 0.00 0.00 0.00 68 1004.7
20260509001244 60 220 0.0 0.0 0.00 0.00 0.00 67 1004.6
20260509000736 61 220 0.0 0.0 0.00 0.00 0.00 66 1004.6
20260509000449 61 220 0.0 0.0 0.00 0.00 0.00 65 1004.5
20260508235958 62 220 0.0 0.0 0.00 0.00 0.00 64 1004.5
20260508235217 62 220 0.0 0.0 0.00 0.00 0.00 63 1004.4
20260508234711 63 220 0.0 0.0 0.00 0.00 0.00 61 1004.5
20260508234204 63 220 0.0 0.0 0.00 0.00 0.00 59 1004.4
20260508233659 64 220 0.0 0.0 0.00 0.00 0.00 58 1004.4
20260508233154 65 220 0.0 0.0 0.00 0.00 0.00 55 1004.4
20260508232646 65 227 0.0 0.0 0.00 0.00 0.00 49 1004.4
20260508232407 65 227 0.0 0.0 0.00 0.00 0.00 46 1004.3
20260508231636 66 227 0.0 0.0 0.00 0.00 0.00 45 1004.3
20260508231131 66 174 0.0 0.0 0.00 0.00 0.00 45 1004.1
20260508230631 66 174 0.0 1.0 0.00 0.00 0.00 45 1004.2
20260508230131 66 210 0.0 2.0 0.00 0.00 0.00 45 1004.0
20260508225856 67 210 0.0 4.0 0.00 0.00 0.00 45 1004.0
20260508224350 68 249 0.0 6.0 0.00 0.00 0.00 42 1004.1
20260508223632 69 135 0.0 2.0 0.00 0.00 0.00 42 1004.1
20260508223127 69 255 0.0 2.0 0.00 0.00 0.00 42 1004.1
20260508222625 70 189 0.0 2.0 0.00 0.00 0.00 40 1004.1
20260508222125 70 207 1.0 6.0 0.00 0.00 0.00 39 1004.1
20260508221621 71 255 1.0 6.0 0.00 0.00 0.00 37 1004.1
20260508221119 71 233 1.0 3.0 0.00 0.00 0.00 39 1004.1
20260508220847 70 301 1.0 4.0 0.00 0.00 0.00 39 1004.1
20260508220119 69 221 1.0 4.0 0.00 0.00 0.00 41 1004.0
20260508215619 68 232 0.0 4.0 0.00 0.00 0.00 41 1004.1
20260508215119 68 229 1.0 4.0 0.00 0.00 0.00 40 1004.1
20260508214619 68 213 1.0 5.0 0.00 0.00 0.00 41 1004.2
20260508214121 68 194 1.0 5.0 0.00 0.00 0.00 40 1004.0
20260508213616 68 220 1.0 5.0 0.00 0.00 0.00 39 1004.1
20260508213109 69 196 1.0 5.0 0.00 0.00 0.00 38 1004.1
20260508212604 69 191 1.0 4.0 0.00 0.00 0.00 37 1004.0
20260508212057 69 218 2.0 7.0 0.00 0.00 0.00 37 1004.0
20260508211551 70 220 2.0 8.0 0.00 0.00 0.00 36 1004.1
20260508211046 70 208 3.0 8.0 0.00 0.00 0.00 36 1004.1
20260508210540 71 259 3.0 7.0 0.00 0.00 0.00 36 1004.1
20260508210251 71 245 2.0 7.0 0.00 0.00 0.00 35 1004.1
20260508205526 71 233 2.0 11.0 0.00 0.00 0.00 40 1004.1
20260508205248 71 217 3.0 11.0 0.00 0.00 0.00 36 1004.1
20260508204517 71 197 2.0 8.0 0.00 0.00 0.00 36 1004.2
20260508204009 70 223 2.0 7.0 0.00 0.00 0.00 40 1004.1
20260508203503 70 223 2.0 5.0 0.00 0.00 0.00 36 1004.2
20260508202957 71 212 3.0 7.0 0.00 0.00 0.00 35 1004.3
20260508202451 71 220 3.0 8.0 0.00 0.00 0.00 36 1004.2
20260508201946 70 205 3.0 12.0 0.00 0.00 0.00 40 1004.3
20260508201439 70 245 2.0 12.0 0.00 0.00 0.00 36 1004.4
20260508201151 71 176 2.0 6.0 0.00 0.00 0.00 36 1004.5
20260508200647 72 209 1.0 5.0 0.00 0.00 0.00 37 1004.6
20260508195921 72 248 1.0 7.0 0.00 0.00 0.00 39 1004.5
20260508195416 72 167 2.0 7.0 0.00 0.00 0.00 36 1004.7
20260508195131 72 230 2.0 8.0 0.00 0.00 0.00 36 1004.8
20260508194403 72 210 2.0 8.0 0.00 0.00 0.00 35 1004.9
20260508194116 72 209 2.0 9.0 0.00 0.00 0.00 37 1004.9
20260508193350 72 91 2.0 9.0 0.00 0.00 0.00 39 1004.9
20260508192339 71 77 3.0 9.0 0.00 0.00 0.00 40 1005.1
20260508191833 71 239 2.0 8.0 0.00 0.00 0.00 37 1005.1
20260508191327 71 283 2.0 7.0 0.00 0.00 0.00 40 1005.2
20260508190822 70 232 2.0 7.0 0.00 0.00 0.00 42 1005.2
20260508190316 70 127 1.0 5.0 0.00 0.00 0.00 41 1005.4
20260508185809 70 231 2.0 6.0 0.00 0.00 0.00 39 1005.5
20260508185306 70 220 2.0 7.0 0.00 0.00 0.00 42 1005.5
20260508184801 70 153 2.0 10.0 0.00 0.00 0.00 37 1005.7
20260508184524 70 176 3.0 10.0 0.00 0.00 0.00 38 1005.7
20260508183756 70 258 2.0 10.0 0.00 0.00 0.00 37 1005.7
20260508183257 70 306 2.0 8.0 0.00 0.00 0.00 42 1005.7
20260508182756 70 262 3.0 10.0 0.00 0.00 0.00 37 1005.9
20260508182257 70 274 2.0 10.0 0.00 0.00 0.00 36 1005.8
20260508181758 71 285 2.0 6.0 0.00 0.00 0.00 41 1005.9
20260508181255 70 250 3.0 6.0 0.00 0.00 0.00 37 1005.8
20260508180755 70 200 2.0 6.0 0.00 0.00 0.00 38 1005.9
20260508180255 71 301 1.0 6.0 0.00 0.00 0.00 40 1005.9
20260508175753 70 125 2.0 9.0 0.00 0.00 0.00 37 1005.9
20260508175254 70 231 2.0 9.0 0.00 0.00 0.00 36 1006.1
20260508174749 70 226 2.0 11.0 0.00 0.00 0.00 40 1006.3
20260508174510 69 234 3.0 11.0 0.00 0.00 0.00 38 1006.2
20260508173746 69 51 3.0 10.0 0.00 0.00 0.00 39 1006.2
20260508173247 69 221 2.0 8.0 0.00 0.00 0.00 41 1006.3
20260508172746 69 196 2.0 8.0 0.00 0.00 0.00 39 1006.1
20260508172247 69 176 3.0 10.0 0.00 0.00 0.00 38 1006.2
20260508171747 68 203 4.0 12.0 0.00 0.00 0.00 45 1006.4
20260508171241 68 205 3.0 12.0 0.00 0.00 0.00 37 1006.4
20260508170735 67 212 2.0 12.0 0.00 0.00 0.00 43 1006.5
20260508170229 67 231 2.0 12.0 0.00 0.00 0.00 38 1006.5
20260508165725 67 193 1.0 5.0 0.00 0.00 0.00 40 1006.6
20260508165444 67 77 2.0 7.0 0.00 0.00 0.00 40 1006.6
20260508164711 67 128 2.0 7.0 0.00 0.00 0.00 38 1006.7
20260508164205 67 139 2.0 7.0 0.00 0.00 0.00 41 1006.7
20260508163659 67 311 2.0 7.0 0.00 0.00 0.00 40 1006.8
20260508163154 66 252 2.0 7.0 0.00 0.00 0.00 43 1006.9
20260508162647 66 72 3.0 11.0 0.00 0.00 0.00 45 1006.9
20260508162358 66 212 3.0 11.0 0.00 0.00 0.00 38 1007.0
20260508161635 65 209 3.0 9.0 0.00 0.00 0.00 44 1006.9
20260508161128 65 236 2.0 7.0 0.00 0.00 0.00 47 1007.2
20260508160624 65 212 2.0 9.0 0.00 0.00 0.00 46 1007.2
20260508160117 65 45 2.0 9.0 0.00 0.00 0.00 42 1007.3
20260508155611 65 188 2.0 8.0 0.00 0.00 0.00 40 1007.4
20260508155104 65 192 2.0 7.0 0.00 0.00 0.00 42 1007.4
20260508154558 64 245 3.0 9.0 0.00 0.00 0.00 41 1007.4
20260508154054 64 148 3.0 9.0 0.00 0.00 0.00 41 1007.4
20260508153547 64 188 2.0 8.0 0.00 0.00 0.00 43 1007.5
20260508153041 64 95 2.0 8.0 0.00 0.00 0.00 40 1007.7
20260508152757 64 41 3.0 7.0 0.00 0.00 0.00 43 1007.7
20260508152028 64 203 2.0 7.0 0.00 0.00 0.00 42 1007.7
20260508151525 64 278 2.0 9.0 0.00 0.00 0.00 42 1007.8
20260508151017 63 76 3.0 9.0 0.00 0.00 0.00 42 1007.9
20260508150510 63 152 2.0 6.0 0.00 0.00 0.00 41 1007.9
20260508150005 63 293 1.0 5.0 0.00 0.00 0.00 46 1008.0
20260508145505 63 27 1.0 6.0 0.00 0.00 0.00 44 1007.9
20260508144504 62 95 3.0 14.0 0.00 0.00 0.00 39 1007.9
20260508144004 62 234 3.0 12.0 0.00 0.00 0.00 46 1008.0
20260508143730 62 204 3.0 9.0 0.00 0.00 0.00 43 1008.0
20260508143004 62 231 2.0 9.0 0.00 0.00 0.00 45 1008.1
20260508142504 62 260 2.0 5.0 0.00 0.00 0.00 44 1008.1
20260508142004 62 121 2.0 5.0 0.00 0.00 0.00 44 1008.1
20260508141505 62 199 1.0 5.0 0.00 0.00 0.00 48 1008.1
20260508141006 61 225 1.0 5.0 0.00 0.00 0.00 46 1008.3
20260508140728 61 152 2.0 5.0 0.00 0.00 0.00 48 1008.2
20260508140005 61 51 2.0 8.0 0.00 0.00 0.00 48 1008.3
20260508135500 61 223 1.0 8.0 0.00 0.00 0.00 49 1008.2
20260508135001 60 79 1.0 4.0 0.00 0.00 0.00 53 1008.3
20260508134456 60 245 1.0 4.0 0.00 0.00 0.00 52 1008.3
20260508134217 59 112 1.0 4.0 0.00 0.00 0.00 54 1008.3
20260508133457 59 220 1.0 4.0 0.00 0.00 0.00 57 1008.3
20260508132957 58 224 0.0 4.0 0.00 0.00 0.00 57 1008.3
20260508132457 58 117 0.0 1.0 0.00 0.00 0.00 61 1008.4
20260508131957 56 110 0.0 1.0 0.00 0.00 0.00 59 1008.4
20260508131456 56 201 0.0 2.0 0.00 0.00 0.00 62 1008.5
20260508130956 55 223 0.0 2.0 0.00 0.00 0.00 65 1008.4
20260508125954 54 250 0.0 1.0 0.00 0.00 0.00 78 1008.5
20260508125454 53 250 0.0 1.0 0.00 0.00 0.00 81 1008.6
20260508125220 52 246 0.0 2.0 0.00 0.00 0.00 84 1008.6
20260508123954 50 210 0.0 1.0 0.00 0.00 0.00 89 1008.5
20260508123453 49 210 0.0 2.0 0.00 0.00 0.00 90 1008.4
20260508122954 48 173 0.0 2.0 0.00 0.00 0.00 89 1008.4
20260508122454 48 227 0.0 1.0 0.00 0.00 0.00 89 1008.4
20260508121954 47 178 0.0 1.0 0.00 0.00 0.00 89 1008.4
20260508121448 47 188 0.0 1.0 0.00 0.00 0.00 90 1008.4
20260508120948 46 188 0.0 1.0 0.00 0.00 0.00 90 1008.3
20260508120448 46 176 0.0 1.0 0.00 0.00 0.00 90 1008.4
20260508115949 45 176 0.0 0.0 0.00 0.00 0.00 90 1008.3
20260508115448 44 176 0.0 0.0 0.00 0.00 0.00 90 1008.2
20260508114949 44 176 0.0 0.0 0.00 0.00 0.00 90 1008.1
20260508114710 44 176 0.0 0.0 0.00 0.00 0.00 90 1008.1
20260508113948 43 176 0.0 0.0 0.00 0.00 0.00 90 1007.9
20260508113713 42 176 0.0 0.0 0.00 0.00 0.00 90 1007.9
20260508112948 42 176 0.0 0.0 0.00 0.00 0.00 90 1007.8
20260508112715 41 176 0.0 0.0 0.00 0.00 0.00 90 1007.7
20260508112206 41 176 0.0 0.0 0.00 0.00 0.00 90 1007.7
20260508111448 41 176 0.0 0.0 0.00 0.00 0.00 90 1007.7
20260508110948 40 176 0.0 0.0 0.00 0.00 0.00 89 1007.7
20260508110448 40 176 0.0 0.0 0.00 0.00 0.00 89 1007.6
20260508105448 40 176 0.0 0.0 0.00 0.00 0.00 89 1007.6
20260508104441 40 176 0.0 0.0 0.00 0.00 0.00 89 1007.4
20260508103935 39 176 0.0 0.0 0.00 0.00 0.00 89 1007.4
20260508103429 39 176 0.0 0.0 0.00 0.00 0.00 89 1007.3
20260508102924 39 176 0.0 0.0 0.00 0.00 0.00 89 1007.2
20260508102417 39 176 0.0 0.0 0.00 0.00 0.00 89 1007.1
20260508101911 39 176 0.0 0.0 0.00 0.00 0.00 89 1007.1
20260508101406 40 176 0.0 0.0 0.00 0.00 0.00 89 1007.0
20260508100900 40 176 0.0 0.0 0.00 0.00 0.00 89 1006.9
20260508100354 40 176 0.0 0.0 0.00 0.00 0.00 89 1006.9
20260508095847 40 176 0.0 0.0 0.00 0.00 0.00 89 1006.8
20260508095342 40 176 0.0 0.0 0.00 0.00 0.00 89 1006.8
20260508094836 41 176 0.0 0.0 0.00 0.00 0.00 89 1006.8
20260508094330 41 176 0.0 0.0 0.00 0.00 0.00 89 1006.9
20260508093824 41 176 0.0 1.0 0.00 0.00 0.00 89 1006.8
20260508093318 42 176 0.0 1.0 0.00 0.00 0.00 89 1006.8
20260508092811 42 176 0.0 1.0 0.00 0.00 0.00 89 1006.7
20260508092313 42 176 0.0 1.0 0.00 0.00 0.00 89 1006.7
20260508091800 42 176 0.0 0.0 0.00 0.00 0.00 89 1006.6
20260508091517 42 176 0.0 1.0 0.00 0.00 0.00 89 1006.6
20260508090748 42 176 0.0 1.0 0.00 0.00 0.00 89 1006.5
20260508090242 42 176 0.0 1.0 0.00 0.00 0.00 89 1006.5
20260508085737 42 176 0.0 0.0 0.00 0.00 0.00 89 1006.4
20260508085230 43 176 0.0 0.0 0.00 0.00 0.00 89 1006.4
20260508084724 43 176 0.0 0.0 0.00 0.00 0.00 89 1006.3
20260508084220 43 176 0.0 0.0 0.00 0.00 0.00 89 1006.2
20260508083711 43 176 0.0 0.0 0.00 0.00 0.00 89 1006.2
20260508083426 43 176 0.0 0.0 0.00 0.00 0.00 89 1006.1
20260508082700 43 176 0.0 0.0 0.00 0.00 0.00 89 1006.1
20260508082154 43 176 0.0 0.0 0.00 0.00 0.00 89 1006.1
20260508081648 43 176 0.0 0.0 0.00 0.00 0.00 89 1006.1
20260508081142 43 176 0.0 0.0 0.00 0.00 0.00 89 1006.0
20260508080635 43 176 0.0 0.0 0.00 0.00 0.00 89 1006.0
20260508080130 43 176 0.0 0.0 0.00 0.00 0.00 89 1005.9
20260508075624 43 176 0.0 0.0 0.00 0.00 0.00 89 1005.8
20260508075341 43 176 0.0 0.0 0.00 0.00 0.00 89 1005.8
20260508074612 43 176 0.0 0.0 0.00 0.00 0.00 89 1005.8
20260508074105 43 176 0.0 0.0 0.00 0.00 0.00 89 1005.7
20260508073559 43 176 0.0 0.0 0.00 0.00 0.00 89 1005.6
20260508073055 43 176 0.0 0.0 0.00 0.00 0.00 89 1005.4
20260508072547 44 176 0.0 0.0 0.00 0.00 0.00 89 1005.4
20260508072042 44 176 0.0 0.0 0.00 0.00 0.00 89 1005.2
20260508071535 44 176 0.0 0.0 0.00 0.00 0.00 89 1005.2
20260508071247 44 176 0.0 0.0 0.00 0.00 0.00 89 1005.1
20260508070524 44 176 0.0 0.0 0.00 0.00 0.00 89 1005.0
20260508070018 44 176 0.0 0.0 0.00 0.00 0.00 89 1004.9
20260508065512 45 176 0.0 0.0 0.00 0.00 0.00 89 1004.8
20260508065006 45 176 0.0 0.0 0.00 0.00 0.00 89 1004.7
20260508064500 45 176 0.0 0.0 0.00 0.00 0.00 89 1004.7
20260508063954 45 176 0.0 0.0 0.00 0.00 0.00 89 1004.7
20260508063448 45 176 0.0 0.0 0.00 0.00 0.00 89 1004.7
20260508062942 45 176 0.0 0.0 0.00 0.00 0.00 89 1004.6
20260508062436 46 176 0.0 0.0 0.00 0.00 0.00 89 1004.6
20260508062148 46 176 0.0 0.0 0.00 0.00 0.00 89 1004.6
20260508061424 46 176 0.0 0.0 0.00 0.00 0.00 89 1004.5
20260508060918 46 176 0.0 0.0 0.00 0.00 0.00 89 1004.5
20260508060412 47 176 0.0 0.0 0.00 0.01 0.00 89 1004.4
20260508060125 47 176 0.0 0.0 0.00 0.01 0.00 89 1004.5
20260508055401 47 176 0.0 0.0 0.00 0.01 0.00 89 1004.5
20260508054854 47 176 0.0 0.0 0.00 0.01 0.00 89 1004.4
20260508054348 47 176 0.0 1.0 0.00 0.01 0.00 89 1004.4
20260508053556 47 169 0.0 0.0 0.00 0.01 0.00 89 1004.4
20260508052830 47 169 0.0 2.0 0.00 0.03 0.00 89 1004.4
20260508052547 47 169 0.0 2.0 0.00 0.05 0.00 89 1004.4
20260508051818 47 172 0.0 2.0 0.00 0.06 0.00 89 1004.5
20260508051312 48 205 0.0 3.0 0.00 0.10 0.00 89 1004.4
20260508050805 48 229 0.0 3.0 0.00 0.12 0.00 89 1004.4
20260508050300 48 223 0.0 3.0 0.00 0.14 0.00 89 1004.3
20260508045754 48 207 0.0 3.0 0.00 0.16 0.00 89 1004.3
20260508045247 48 206 0.0 2.0 0.00 0.17 0.00 89 1004.3
20260508044742 48 255 0.0 2.0 0.00 0.18 0.00 89 1004.2
20260508044235 48 160 0.0 2.0 0.00 0.19 0.00 88 1004.2
20260508043731 48 217 0.0 2.0 0.00 0.27 0.00 88 1004.2
20260508043224 48 229 0.0 1.0 0.00 0.28 0.00 88 1004.1